Home > Weather > San Pedro Sula > Past weeks

Flag for Honduras Past Weather in San Pedro Sula, Honduras — Yesterday and Last 2 Weeks

Now
75 °F

Partly cloudy.


Feels Like: 73 °F
Forecast: 77 / 93 °F
Wind: 5 mph from Southwest

Location: La Mesa San Pedro Sula

Current Time: Jul 23, 2016 at 10:57:33 PM

Latest Report: Jul 23, 2016 at 10:00 PM


Visibility: N/A

Pressure: 29.95 "Hg

Humidity: 100%

Dew Point: 75 °F

Location of San Pedro SulaLocation

Past Weather in San Pedro Sula — Graph

°F

San Pedro Sula Temperature Yesterday

Maximum temperature yesterday: 91 °F (at 1:00 PM)
Minimum temperature yesterday: 75 °F (at 7:28 AM)
Average temperature yesterday: 83 °F

High & Low Weather Summary for the Past Weeks

 TemperatureHumidityPressure
High93 °F (Jul 11, 11:00 AM)100% (Jul 21, 12:00 AM)30.04 "Hg (Jul 21, 12:00 AM)
Low72 °F (Jul 14, 6:00 AM)25% (Jul 23, 5:00 AM)29.83 "Hg (Jul 23, 2:00 PM)
Average82 °F74%29.96 "Hg
* Reported Jul 8 9:00 PM — Jul 23 9:00 PM, San Pedro Sula, Weather by CustomWeather, © 2016

Note: Actual official high and low records may vary slightly from our data, if they occured in-between our weather recording intervals... More about our weather records

Advertising

San Pedro Sula Weather History for the Previous 24 Hours

Scroll right to see more
 ConditionsComfort  
Time TempWeatherWind HumidityBarometerVisibility
9:00 PM
Sat, Jul 23
75 °FPartly cloudy.No wind100%29.89 "HgN/A
8:00 PM75 °FPartly cloudy.2 mph100%29.89 "HgN/A
7:00 PM75 °FPartly cloudy.No wind100%29.89 "HgN/A
6:00 PM73 °FLight rain. Broken clouds.No wind100%29.86 "HgN/A
5:00 PM73 °FThunderstorms. Broken clouds.5 mph100%29.86 "HgN/A
4:00 PM75 °FThunderstorms. Partly sunny.7 mph100%29.86 "HgN/A
3:00 PM90 °FScattered showers. Broken clouds.21 mph75%29.83 "Hg5 mi
2:00 PM93 °FScattered clouds.17 mph67%29.83 "HgN/A
1:00 PM93 °FScattered clouds.6 mph63%29.86 "HgN/A
12:00 PM91 °FScattered clouds.3 mph67%29.89 "HgN/A
11:00 AM90 °FScattered clouds.3 mph67%29.92 "HgN/A
10:00 AM88 °FScattered clouds.3 mph75%29.95 "HgN/A
9:00 AM84 °FPassing clouds.3 mph84%29.98 "HgN/A
7:00 AM77 °FScattered clouds.No wind100%29.98 "HgN/A
6:00 AM73 °FScattered clouds.No wind100%29.95 "HgN/A
5:00 AM73 °FPassing clouds.No wind25%29.95 "HgN/A
3:00 AM73 °FPassing clouds.No wind100%29.95 "HgN/A
2:00 AM73 °FMild.No wind100%29.95 "HgN/A
1:00 AM75 °FPassing clouds.5 mph100%29.95 "HgN/A
12:00 AM79 °FPassing clouds.No wind89%29.98 "HgN/A
11:00 PM
Fri, Jul 22
77 °FPassing clouds.No wind94%30.01 "HgN/A
10:00 PM81 °FPassing clouds.5 mph89%30.01 "HgN/A
Weather by CustomWeather, © 2016

See weather overviewHow to use our weather pages